Location: *
(49.5667°N, 1.3667°W)
Time: 09:58:42
(UTC+00:00)

GEOS 3 Rocket - Pass Details

Date: 20 September 2019
Orbit: 790 x 829 km, 115.0° (Epoch: 15 October)

Event Time Altitude Azimuth Distance (km) Brightness Sun altitude
Exits shadow 18:37:15 - 127° (SE) 3,057 6.1 -5.4°
Reaches altitude 10° 18:38:59 10° 126° (SE) 2,352 5.5 -5.7°
Maximum altitude 18:44:02 69° 44° (NE) 850 3.6 -6.5°
Drops below altitude 10° 18:49:08 10° 322° (NW) 2,373 6.8 -7.4°
Sets 18:51:26 0° 320° (NW) 3,310 7.7 -7.7°
